Regional Weather Roundup
Issued by NWS

Home | Current Version | Previous Version | Text Only | Print | Product List | Glossary On
Versions: 1 2 3 4 5 6 7 8 9 10 11 12 13 14 15 16 17 18 19 20 21 22 23 24 25 26 27 28 29 30 31 32 33 34 35 36 37 38 39 40 41 42 43 44 45 46 47 48 49 50
000
ASUS43 KOAX 311402
RWRNE

WEATHER ROUNDUP FOR NEBRASKA
NATIONAL WEATHER SERVICE OMAHA NE
900 AM CDT MON AUG 31 2015

NOTES: SATELLITE DATA IS BEING USED TO AUGMENT CLOUD COVER ABOVE
       12000 FEET.
       "FAIR" INDICATES FEW OR NO CLOUDS BELOW 12,000 FEET WITH NO
       SIGNIFICANT WEATHER AND/OR OBSTRUCTIONS TO VISIBILITY.

  * THESE STATIONS DO NOT REPORT WEATHER SUCH AS RAIN...SNOW OR FOG.

NEZ001>004-019>022-054>056-311500-
NEBRASKA PANHANDLE

CITY           SKY/WX    TMP DP  RH WIND       PRES   REMARKS
SCOTTSBLUFF    LGT RAIN  69  56  62 W9        29.97R
ALLIANCE       PTSUNNY   76  53  44 NW7       29.97R
CHADRON        PTSUNNY   75  54  47 SW7       29.91R
KIMBALL        CLOUDY    70  50  50 NW10G16   30.03S
SIDNEY         PTSUNNY   72  51  47 NW12      30.02R
$$

NEZ057>060-069>072-079>082-311500-
SOUTHWEST NEBRASKA

CITY           SKY/WX    TMP DP  RH WIND       PRES   REMARKS
NORTH PLATTE   SUNNY     63  57  81 VRB3      29.95R
IMPERIAL       SUNNY     65  53  65 SE5       29.96R
MCCOOK         SUNNY     66  58  75 SE8       29.93S
$$

NEZ005>010-023>029-035>040-094-311500-
NORTH CENTRAL NEBRASKA

CITY           SKY/WX    TMP DP  RH WIND       PRES   REMARKS
VALENTINE      PTSUNNY   70  50  49 SW5       29.87R
AINSWORTH      MOSUNNY   69  56  64 SW13      29.90R
BROKEN BOW     SUNNY     66  63  90 S5        29.93S
ORD            SUNNY     65  63  93 SE5       29.90S
$$

NEZ041-046>049-061>064-073>077-083>087-311500-
SOUTH CENTRAL NEBRASKA

CITY           SKY/WX    TMP DP  RH WIND       PRES   REMARKS
GRAND ISLAND   SUNNY     66  64  93 S9        29.95R
AURORA         PTSUNNY   65  65 100 S7        29.95S FOG
HASTINGS       FOG       63  63 100 S7        29.95R VSB 3/4
HEBRON         PTSUNNY   67  66  99 S8        29.96S FOG
HOLDREGE       SUNNY     64  62  95 S6        29.95R
KEARNEY *      SUNNY     63  59  88 S6        29.95R
YORK           MOSUNNY   66  66 100 S8        29.96S FOG
$$

NEZ011>018-030>034-042>045-311500-
NORTHEAST NEBRASKA

CITY           SKY/WX    TMP DP  RH WIND       PRES   REMARKS
NORFOLK        SUNNY     68  65  90 S7        29.93R FOG
ALBION         CLOUDY    65  63  94 S9        29.94R FOG
BLAIR          FOG       68  66  94 S8        29.96F VSB 1
COLUMBUS *     SUNNY     68  61  77 S5        29.95S
FREMONT        MOSUNNY   70  68  95 SE3       29.96S FOG
TEKAMAH        FOG       67  67 100 S3        29.95S VSB 1/4
WAYNE          PTSUNNY   67  66  97 S13       29.93S FOG
$$

NEZ050>053-065>068-078-088>093-311500-
SOUTHEAST NEBRASKA

CITY           SKY/WX    TMP DP  RH WIND       PRES   REMARKS
LINCOLN        SUNNY     68  67  96 S7        29.97S FOG
OMAHA EPPLEY   MOSUNNY   70  68  93 S5        29.96F FOG
FALLS CITY     MOSUNNY   71  69  93 SE5       29.97S FOG
NEBRASKA CITY  PTSUNNY   68  67  99 S3        29.98S FOG
PLATTSMOUTH    FOG       68  67  96 SE5       29.98R VSB 1/2
$$

NEZ044-045-051>053-067-311500-
OMAHA AREA

CITY           SKY/WX    TMP DP  RH WIND       PRES   REMARKS
OMAHA EPPLEY   MOSUNNY   70  68  93 S5        29.96F FOG
BLAIR          FOG       68  66  94 S8        29.96F VSB 1
FREMONT        MOSUNNY   70  68  95 SE3       29.96S FOG
OFFUTT AFB     PTSUNNY   68  68 100 SE5       29.96S FOG
PLATTSMOUTH    FOG       68  67  96 SE5       29.98R VSB 1/2
WAHOO          FOG       66  65  96 SE3       29.96S VSB 1
$$



USA.gov is the U.S. government's official web portal to all federal, state and local government web resources and services.